Terug naar catalogus

STARLINK-1496

ActiefCommunicatieVLEO
NORAD 45780·PAYLOAD·🇺🇸 United States

Gelanceerd Jun 13, 2020 vanaf Cape Canaveral Space Force Station

Loading…

Volgende Passages (komende 24 uur)

TLE

VersSource: CelesTrak SupGP

Epoch: Sep 14, 2026, 21:43 UTC

1 45780C 20038BC  26257.90534722  .00086578  00000+0  36537-3 0  2578
2 45780  53.0371 327.1436 0003352 337.6764 140.9159 15.84659927    16

Volg STARLINK-1496 in realtime met AllMySat

Download on the App Store